Tracking 23440 objects as of 12-Jun-2021
HD Live streaming from Space Station
objects crossing your sky now

INTELSAT 4-F7

Track INTELSAT 4-F7 now!
INTELSAT 4-F7 is classified as:


NORAD ID: 6796
Int'l Code: 1973-058A
Perigee: 36,079.2 km
Apogee: 36,144.6 km
Inclination: 11.4 °
Period: 1,452.4 minutes
Semi major axis: 42482 km
RCS: 1.5964 m2 (large)
Launch date: August 23, 1973
Source: International Telecommunications Satellite Organization (ITSO)
Launch site: AIR FORCE EASTERN TEST RANGE (AFETR)
aabbcc
Your satellite tracking list
Your tracking list is empty




NASA's NSSDC Master Catalog

Two Line Element Set (TLE):
1  6796U 73058A   21162.78458201 -.00000264  00000-0  00000+0 0  9990
2  6796  11.3708 314.2109 0007694 139.4813 219.4810  0.99147369117467
Source of the keplerian elements: AFSPC